Flag for Canada Weather past 2 weeks in Yellowknife, Northwest Territories, Canada

Now
36 °F

Broken clouds.


Feels Like: 27 °F
Forecast: 40 / 54 °F
Wind: 14 mph from Northeast

Location: Yellowknife

Current Time: May 27, 2015 at 6:31:40 AM

Latest Report: May 27, 2015 at 6:00 AM


Visibility: 15 mi

Pressure: 30.24 "Hg

Humidity: 70%

Dew point: 27 °F

Location of YellowknifeLocation

Historic Weather in Yellowknife — Graph

°F

Yellowknife temperature yesterday

Maximum temperature yesterday: 55 °F (at 5:00 PM)
Minimum temperature yesterday: 36 °F (at 2:00 AM)
Average temperature yesterday: 47 °F

Past Weeks' High & Low Weather Summary

 TemperatureHumidityPressure
High79 °F (May 21, 7:00 PM)76% (May 15, 6:00 AM)30.57 "Hg (May 15, 6:00 AM)
Low18 °F (May 16, 4:00 AM)20% (May 18, 4:00 PM)29.63 "Hg (May 14, 9:00 PM)
Average52 °F44%30.12 "Hg
* Reported May 12 5:00 AM — May 27 5:00 AM, Yellowknife, Weather by CustomWeather, © 2015

Note: Actual official high and low records may vary slightly from our data, if they occured in-between our weather recording intervals... More about our weather records

Advertising

Yellowknife weather history for previous 24 hours

 ConditionsComfort  
Time TempWeatherWind HumidityBarometerVisibility
5:00 AM
Wed, May 27
36 °FPassing clouds.13 mph75%30.22 "Hg15 mi
4:45 AM36 °FPassing clouds.15 mph75%30.21 "Hg15 mi
4:00 AM37 °FPassing clouds.13 mph70%30.20 "Hg15 mi
3:00 AM39 °FPassing clouds.13 mph65%30.19 "Hg15 mi
2:00 AM41 °FPassing clouds.13 mph57%30.17 "Hg15 mi
1:00 AM43 °FPassing clouds.13 mph53%30.16 "Hg15 mi
12:00 AM45 °FScattered clouds.15 mph53%30.14 "Hg15 mi
11:00 PM
Tue, May 26
48 °FPartly sunny.15 mph46%30.12 "Hg15 mi
10:00 PM52 °FScattered clouds.14 mph41%30.10 "Hg15 mi
9:00 PM54 °FScattered clouds.14 mph35%30.09 "Hg15 mi
8:00 PM54 °FPassing clouds.5 mph38%30.09 "Hg15 mi
7:00 PM55 °FScattered clouds.7 mph36%30.08 "Hg15 mi
6:00 PM55 °FScattered clouds.7 mph36%30.09 "Hg15 mi
5:00 PM55 °FScattered clouds.10 mph33%30.10 "Hg15 mi
4:00 PM54 °FScattered clouds.9 mph35%30.11 "Hg15 mi
3:00 PM54 °FBroken clouds.12 mph38%30.11 "Hg15 mi
2:00 PM54 °FPartly sunny.10 mph41%30.12 "Hg15 mi
1:00 PM54 °FPartly sunny.9 mph41%30.12 "Hg15 mi
12:00 PM52 °FPartly sunny.9 mph38%30.13 "Hg15 mi
11:00 AM50 °FPartly sunny.12 mph37%30.12 "Hg15 mi
10:00 AM50 °FScattered clouds.6 mph40%30.12 "Hg15 mi
9:00 AM48 °FPassing clouds.5 mph43%30.13 "Hg15 mi
8:00 AM46 °FScattered clouds.6 mph46%30.12 "Hg15 mi
7:00 AM43 °FPassing clouds.No wind57%30.12 "Hg15 mi
6:00 AM39 °FPassing clouds.2 mph70%30.12 "Hg15 mi
Weather by CustomWeather, © 2015

See weather overviewHow to use our weather pages